Jackpot

Texas Poker Multi Jackpot System

Kini Telah hadir Jackpot SUPER ROYAL FLUSH

Kini Telah hadir Jackpot 2000 (khusus table VIP keatas).

Ikutilah global jackpot yang tersedia di system kami, dengan system jackpot terbaru dan pertama di indonesia, anda dapat membeli jackpot dengan harga 100 rupiah saja dan menangkan hadiahnya hingga puluhan juta rupiah.

Jackpot bukanlah suatu keharusan untuk dibeli, namun kami memberikan suatu fitur tambahan untuk member tercinta dari www.mustikapoker.co.

Terdapat tiga pilihan harga jackpot yang bisa anda beli yaitu :100,500,1000 dan 2000(khusus table VIP Keatas) rupiah.

Hadiah dari Multi jackpot system www.mustikapoker.co

  1. full house x 10 harga jackpot yang anda beli.
      (contoh:anda membeli 1000 maka:1000 X10 = 10.000)
  2. four of kind x 250 harga jackpot yang anda beli
      (contoh:anda membeli 1000 maka:1000 X250 = 250.000)
  3. Straight flush x 1200
      (contoh:anda membeli 1000 maka:1000 X1200 = 1.200.000)
  4. Royal flush x 10000 harga jackpot yang anda beli
      (contoh:anda membeli 1000 maka:1000 X10000 = 10.000.000)
  5. SUPER ROYAL FLUSH x 30000 harga jackpot yang anda beli
      (contoh:anda membeli 1000 maka:1000 X30000 = 30.000.000)

Kondisi kartu

  1. full house adalah kondisi kartu dimana kartu anda dan kartu tengah dengan total 7 kartu bisa mendapatkan nilai 5 kartu dengan kombinasi 1 tris(three of kind) dan 1 pair, contoh 3 kartu 10 dan 2 kartu 5
  2. Four of kind adalah kondisi kartu dimana kartu anda dan kartu tengah dengan total 7 kartu bisa mendapatkan nilai 5 kartu dengan kombinasi 4 kartu yang sama jumlah dan 1 kartu apapun juga contoh anda mendapatkan 4 buah kartu angka 3 dan 1 kartu apapun.
  3. Staright flush adalah kondisi kartu dimana kartu anda dan kartu tengah dengan total 7 kartu bisa mendapatkan nilai 5 kartu dengan kombinasi seri / staright dengan kembang yang sama contoh : urutan kartu dari angka 5, 6, 7, 8 , 9 10 dengan kembang yg sama misalnya as hati
  4. Royal flush adalah kondisi kartu dimana kartu anda dan kartu tengah dengan total 7 kartu bisa mendapatkan nilai 5 kartu dengan kombinasi seri / staright dengan kembang yang sama tetapi kartu tersebut haruslah dimulai dari 10. contoh 10, Queen, Jack, King dan aces dengan kembang yang sama
  5. Super Royal flush adalah kondisi kartu dimana Kedua kartu anda digabung dengan 3 kartu pertama meja haruslah royal flush. contoh kartu anda 10,Queen kembang sama dan 3 kartu pertama meja adalah Jack, King dan aces dengan kembang yang sama

Demikian adalah penjelasan dari Multi Jackpot www.mustikapoker.co terima kasih dan selamat bermain salam hoki dari kami

Texas Poker Jackpot Winner

TOP SUPER ROYAL FLUSH
No.TanggalNamaPriceWin
127/04 08:45CHAZSuper Royal flush3,000,000
227/04 06:15IDHG4170927Super Royal flush3,000,000
327/04 04:56OK_12Super Royal flush6,000,000
427/04 00:59TYSON15Super Royal flush3,000,000
527/04 00:05RIDHO2998Super Royal flush15,000,000
TOP ROYAL FLUSH
No.TanggalNamaPriceWin
127/04 09:09VVL5ZDQGTORoyal flush10,000,000
227/04 09:02N1WLN2W050Royal flush10,000,000
327/04 07:59CYU32XZYAKRoyal flush1,000,000
427/04 07:33JOMBE22Royal flush2,000,000
527/04 07:07CEITHARoyal flush1,000,000
TOP STRAIGHT FLUSH
No.TanggalNamaPriceWin
127/04 09:22RIZALUMAMIStraight Flush240,000
227/04 09:19SAKENTUStraight Flush600,000
327/04 09:16FARHATIStraight Flush600,000
427/04 09:15SNI54915Straight Flush240,000
527/04 09:12CBTJXCXZRQStraight Flush600,000
LATEST JACKPOT
No.TanggalNamaPriceWin
127/04 09:24SAGUMPAFull House10,000
227/04 09:24ANGR33KFull House1,000
327/04 09:24FARIIQQFull House1,000
427/04 09:24TAILONG21Full House500
527/04 09:24GAJAHBGRFull House2,000
627/04 09:23T3HT4W4RFull House10,000
727/04 09:23R4MP0K797Full House5,000
827/04 09:23UCZUO4T9PHFull House2,000
927/04 09:23SUT_DAI_86Full House5,000
1027/04 09:23MIHAWK96Full House5,000
1127/04 09:23KOROIKFull House2,000
1227/04 09:23KARNA_77Full House2,000
1327/04 09:23OCIE92Full House1,000
1427/04 09:23TEPIAN89Full House2,000
1527/04 09:23MALES378Full House2,000
1627/04 09:23DEDYWAE737Four Of A Kind125,000
1727/04 09:23RIKIAF09Full House2,000
1827/04 09:23SEDH3LFull House10,000
1927/04 09:23JUXN0WMETKFull House5,000
2027/04 09:23A2A0524AFull House2,000
2127/04 09:23AAAAADAA88Full House1,000
2227/04 09:23LEWATAN2Full House20,000
2327/04 09:23ACG9191Full House1,000
2427/04 09:23T4DWANDENFull House2,000
2527/04 09:23JOY_18Full House1,000
2627/04 09:23LINDAASRFull House10,000
2727/04 09:23TRISILAUFull House10,000
2827/04 09:23AULIALIA14Full House1,000
2927/04 09:23T4DA4RU5Full House1,000
3027/04 09:23K1NGSP0K33Full House20,000
3127/04 09:23YAKIN_789Full House2,000
3227/04 09:23GAJAHBGRFull House2,000
3327/04 09:23QIHUK_JAYAFull House2,000
3427/04 09:23CHIE_21Full House10,000
3527/04 09:23ALUKAR86Full House10,000
3627/04 09:23PT4DKASIHFull House2,000
3727/04 09:23NGOXZFour Of A Kind25,000
3827/04 09:23GABOES46Full House10,000
3927/04 09:23ADITLK3Full House2,000
4027/04 09:23UNCANG24Full House10,000
4127/04 09:23DXX87Full House2,000
4227/04 09:23BREATHE88Four Of A Kind25,000
4327/04 09:22BLUUSSFull House5,000
4427/04 09:22KUNTOAJI8Full House5,000
4527/04 09:22A303D3DBFull House2,000
4627/04 09:22HZ1988Full House10,000
4727/04 09:22AEEF631CFour Of A Kind125,000
4827/04 09:22ROYAL110JTFull House2,000
4927/04 09:22RIZALUMAMIStraight Flush240,000
5027/04 09:22DD5F31ADFull House5,000

Domino Multi Jackpot System

Ikutilah global jackpot yang tersedia di system kami, dengan system jackpot terbaru dan pertama di indonesia, anda dapat membeli jackpot dengan harga 100 rupiah saja dan menangkan hadiahnya hingga puluhan juta rupiah.

Jackpot bukanlah suatu keharusan untuk dibeli, namun kami memberikan suatu fitur tambahan untuk member tercinta dari www.mustikapoker.co.

Terdapat tiga pilihan harga jackpot yang bisa anda beli yaitu :100,500 dan 1000 rupiah.

Hadiah dari Multi jackpot system www.mustikapoker.co

  1. Murni Kecil x 50 harga jackpot yang anda beli.
      (contoh:anda membeli 1000 maka:1000 X 50 = 50.000)
  2. Murni Besar x 50 harga jackpot yang anda beli
      (contoh:anda membeli 1000 maka:1000 X 50 = 50.000)
  3. BALAK x 100 harga jackpot yang anda beli
      (contoh:anda membeli 1000 maka:1000 X 100 = 100.000)
  4. ENAM DEWA x 6666 harga jackpot yang anda beli
      (contoh:anda membeli 1000 maka:1000 X 6666 = 6.666.000)

Demikian adalah penjelasan dari Multi Jackpot www.mustikapoker.co terima kasih dan selamat bermain salam hoki dari kami

Domino Jackpot Winner

TOP ENAM DEWA
No.TanggalNamaPriceWin
127/04 08:00UNDR7LVPTYmurni enam6,666,000
227/04 06:49TMCLUB99murni enam3,333,000
327/04 06:14BARAKOKOK9murni enam3,333,000
427/04 04:55ISBAT10murni enam666,600
527/04 04:02HROTmurni enam6,666,000
TOP BALAK
No.TanggalNamaPriceWin
127/04 09:23ARISSYAHbalak50,000
227/04 09:20NQBOWBS76Sbalak50,000
327/04 09:19NGATANGbalak10,000
427/04 09:14AJIS99999balak50,000
527/04 09:12BEL1NKbalak100,000
LATEST JACKPOT
No.TanggalNamaPriceWin
127/04 09:23G0NDOL99murni besar50,000
227/04 09:23ARISSYAHbalak50,000
327/04 09:23SSAASSmurni kecil25,000
427/04 09:23KUPEOBOSmurni besar50,000
527/04 09:22DS5LG5YRVXmurni kecil25,000
627/04 09:22ARISSYAHmurni besar25,000
727/04 09:20NQBOWBS76Sbalak50,000
827/04 09:19NGATANGbalak10,000
927/04 09:19MIDAS456murni kecil50,000
1027/04 09:19RRROJO99murni kecil25,000
1127/04 09:18GFONGmurni besar25,000
1227/04 09:16CUMIMBABlucky9950,000
1327/04 09:16JARA00murni kecil50,000
1427/04 09:14COPY4D88murni kecil50,000
1527/04 09:14N0RIZHImurni besar5,000
1627/04 09:14SSAASSmurni kecil25,000
1727/04 09:14AJIS99999balak50,000
1827/04 09:13ADIUGEMEmurni kecil25,000
1927/04 09:13VERYJUMEX8murni besar50,000
2027/04 09:12PHANTOPPlucky9925,000
2127/04 09:12BEL1NKbalak100,000
2227/04 09:12THEMITmurni besar50,000
2327/04 09:12DARMA_YASAmurni besar50,000
2427/04 09:11TEMPEK209murni besar5,000
2527/04 09:07ADOEL1026balak50,000
2627/04 09:04SSAASSmurni kecil25,000
2727/04 09:04VINENESlucky9910,000
2827/04 09:03OND123balak50,000
2927/04 09:02MX110murni besar25,000
3027/04 09:02A7XMARIOPBmurni besar50,000
3127/04 09:01MAMAT_99murni kecil50,000
3227/04 09:01MIDAS456murni kecil50,000
3327/04 09:00SANDYSKOmurni kecil5,000
3427/04 08:59MIDAS456balak100,000
3527/04 08:59HADLUCK87balak50,000
3627/04 08:58ADIUGEMEmurni besar25,000
3727/04 08:58ZYZYWIWIbalak100,000
3827/04 08:56BEDJO121murni kecil25,000
3927/04 08:56SER4N9_601balak100,000
4027/04 08:56AAAALEHE95lucky9910,000
4127/04 08:55VERYJUMEX8murni kecil50,000
4227/04 08:54KALEMBAE2murni kecil50,000
4327/04 08:53LANGIT_82murni kecil50,000
4427/04 08:53SSAASSmurni kecil25,000
4527/04 08:53CATANmurni besar25,000
4627/04 08:51CAMP8murni besar50,000
4727/04 08:51BGARDDKD99balak50,000
4827/04 08:51UEDANmurni kecil5,000
4927/04 08:51DANANK99murni kecil25,000
5027/04 08:50SEVEN69murni besar5,000

Ceme Multi Jackpot System

Jackpot dilihat dari gabungan kartu pemain dengan kartu bandar. Bandar harus membeli jackpot sebanyak jumlah player yang sedang duduk. Sebagai contoh bila terdapat 3 pemain duduk bermain, dan bandar memutuskan untuk membeli jackpot Rp 1.000, maka pada periode tersebut bandar akan membeli jackpot sebanyak 3xRp1.000 = Rp3.000.

Jackpot bukanlah suatu keharusan untuk dibeli, namun kami memberikan suatu fitur tambahan untuk member tercinta dari www.mustikapoker.co.

Terdapat tiga pilihan harga jackpot yang bisa anda beli yaitu :100,500 dan 1000 rupiah.

Hadiah dari Multi jackpot system www.mustikapoker.co

  1. Murni Kecil x 50 harga jackpot yang anda beli.
      (contoh:anda membeli 1000 maka:1000 X 50 = 50.000)
  2. Murni Besar x 50 harga jackpot yang anda beli
      (contoh:anda membeli 1000 maka:1000 X 50 = 50.000)
  3. BALAK x 200 harga jackpot yang anda beli
      (contoh:anda membeli 1000 maka:1000 X 200 = 200.000)
  4. ENAM DEWA x 6666 harga jackpot yang anda beli
      (contoh:anda membeli 1000 maka:1000 X 6666 = 6.666.000)

Demikian adalah penjelasan dari Multi Jackpot www.mustikapoker.co terima kasih dan selamat bermain salam hoki dari kami

Ceme Jackpot Winner

TOP ENAM DEWA
No.TanggalNamaPriceWin
127/04 09:06KITENG811murni enam6,666,000
227/04 08:54CIPAUDEmurni enam3,333,000
327/04 08:54SALJU04murni enam6,666,000
427/04 08:51HOOKY08murni enam3,333,000
527/04 08:51OKBROW88murni enam6,666,000
TOP BALAK
No.TanggalNamaPriceWin
127/04 09:23LEMOKEbalak100,000
227/04 09:23ABOY2311balak200,000
327/04 09:23BUSIPENbalak200,000
427/04 09:22ARCUKA12balak200,000
527/04 09:22MLDRbalak20,000
LATEST JACKPOT
No.TanggalNamaPriceWin
127/04 09:24SIUTTTmurni kecil50,000
227/04 09:23DIRIO15murni kecil25,000
327/04 09:23BUYUANG55murni kecil50,000
427/04 09:23CHAYO02murni kecil50,000
527/04 09:23DEANOVEASYmurni kecil50,000
627/04 09:23LEMOKEbalak100,000
727/04 09:23ALVINMAHMUmurni kecil50,000
827/04 09:23ABOY2311balak200,000
927/04 09:23BUSIPENbalak200,000
1027/04 09:23TEPLEK78murni kecil50,000
1127/04 09:23MIDHUN19murni kecil50,000
1227/04 09:22ARCUKA12balak200,000
1327/04 09:22MLDRbalak20,000
1427/04 09:22DEWILESLYmurni kecil50,000
1527/04 09:22STOGO17murni kecil25,000
1627/04 09:22KAKANGBRAMbalak200,000
1727/04 09:22BABA813murni kecil25,000
1827/04 09:22NADIAH80murni kecil5,000
1927/04 09:22LU2TH555murni kecil25,000
2027/04 09:22BDX12murni besar50,000
2127/04 09:21E1212YKRmurni besar50,000
2227/04 09:21EKCA777murni kecil25,000
2327/04 09:21KB6Z4DV1LEbalak200,000
2427/04 09:21KOBAR777balak100,000
2527/04 09:21THAIPROmurni kecil50,000
2627/04 09:21THAIPROmurni kecil50,000
2727/04 09:21USN1907murni besar5,000
2827/04 09:21MAYUSUFmurni besar50,000
2927/04 09:21J6D5FXSM01balak200,000
3027/04 09:21JIMAH018balak20,000
3127/04 09:21J6D5FXSM01balak200,000
3227/04 09:21HERMAN4416balak20,000
3327/04 09:21VIP461balak100,000
3427/04 09:20DDANNmurni kecil25,000
3527/04 09:20UCOKTEDY12murni kecil50,000
3627/04 09:20DDFGFICU22murni kecil5,000
3727/04 09:20KURCHUL86murni besar50,000
3827/04 09:20KURCHUL86murni besar50,000
3927/04 09:20RYAN0077murni besar50,000
4027/04 09:20KURE9999murni besar50,000
4127/04 09:20RAJAURKARmurni besar25,000
4227/04 09:20KAKAXX55murni kecil25,000
4327/04 09:20KOCORR66murni kecil50,000
4427/04 09:20JOK3RR338murni besar50,000
4527/04 09:20GOESCILIKmurni besar50,000
4627/04 09:20SAKTI57murni kecil50,000
4727/04 09:20BONCEL7869murni kecil50,000
4827/04 09:20ARCUKA12murni kecil50,000
4927/04 09:20BONDAN003murni besar50,000
5027/04 09:20QUYU29murni kecil50,000